DW2786 Weather Reports


time (UTC)temp
C
wind
direction
speed
KPH
gust
KPH
rain 1hr
cm
rain 24hr
cm
rain mn
cm
humidity
%
barometer
mb
20260502183327 13 231 4.8 16.1 0.00 0.00 0.00 41 1017.1
20260502183035 13 211 6.4 11.3 0.00 0.00 0.00 41 1017.4
20260502183033 13 180 4.8 12.9 0.00 0.00 0.00 40 1014.9
20260502182809 13 179 4.8 6.4 0.00 0.00 0.00 45 1017.1
20260502182317 13 135 1.6 4.8 0.00 0.00 0.00 45 1017.3
20260502181846 13 54 1.6 9.7 0.00 0.00 0.00 44 1017.3
20260502181556 13 272 1.6 9.7 0.00 0.00 0.00 41 1017.7
20260502181537 13 0 3.2 9.7 0.00 0.00 0.00 40 1015.1
20260502181313 13 72 3.2 6.4 0.00 0.00 0.00 41 1017.4
20260502180823 13 307 3.2 12.9 0.00 0.00 0.00 44 1017.4
20260502180332 13 266 4.8 12.9 0.00 0.00 0.00 42 1017.5
20260502170326 12 235 1.6 11.3 0.00 0.00 0.00 44 1017.7
20260502164322 13 150 3.2 9.7 0.00 0.00 0.00 43 1017.8
20260502163833 13 24 3.2 9.7 0.00 0.00 0.00 43 1017.9
20260502163320 13 285 3.2 20.9 0.00 0.00 0.00 44 1017.9
20260502163039 13 155 1.6 20.9 0.00 0.00 0.00 42 1015.7
20260502162826 13 302 1.6 20.9 0.00 0.00 0.00 42 1017.8
20260502162334 13 128 4.8 14.5 0.00 0.00 0.00 40 1017.9
20260502161818 14 32 4.8 16.1 0.00 0.00 0.00 39 1018.0
20260502161558 13 99 3.2 16.1 0.00 0.00 0.00 38 1018.3
20260502161538 13 0 3.2 17.7 0.00 0.00 0.00 38 1015.8
20260502161328 14 254 3.2 14.5 0.00 0.00 0.00 41 1017.9
20260502160816 14 360 6.4 14.5 0.00 0.00 0.00 39 1018.0
20260502160327 14 55 6.4 12.9 0.00 0.00 0.00 42 1018.1
20260502151815 14 136 1.6 4.8 0.00 0.00 0.00 44 1018.2
20260502151541 13 13 1.6 9.7 0.00 0.00 0.00 42 1016.0
20260502151517 13 9 1.6 4.8 0.00 0.00 0.00 43 1018.5
20260502151326 14 36 1.6 4.8 0.00 0.00 0.00 47 1018.3
20260502150810 14 14 3.2 9.7 0.00 0.00 0.00 46 1018.3
20260502150317 14 113 3.2 8.0 0.00 0.00 0.00 48 1018.4
20260502130315 7 112 0.0 4.8 0.00 0.00 0.00 91 1018.6
20260502123318 5 132 1.6 4.8 0.00 0.00 0.00 90 1018.5
20260502123057 5 130 1.6 4.8 0.00 0.00 0.00 90 1018.8
20260502123039 5 130 0.0 4.8 0.00 0.00 0.00 90 1016.2
20260502122827 5 82 1.6 3.2 0.00 0.00 0.00 90 1018.5
20260502122317 4 98 0.0 3.2 0.00 0.00 0.00 90 1018.7
20260502121826 4 108 1.6 3.2 0.00 0.00 0.00 90 1018.7
20260502121534 3 77 0.0 3.2 0.00 0.00 0.00 89 1019.0
20260502121310 3 109 1.6 3.2 0.00 0.00 0.00 89 1018.7
20260502120821 3 115 1.6 3.2 0.00 0.00 0.00 89 1018.5
20260502120310 2 129 0.0 1.6 0.00 0.00 0.00 89 1018.6
20260502115841 2 154 0.0 3.2 0.00 0.00 0.00 88 1018.6
20260502115331 2 174 0.0 3.2 0.00 0.00 0.00 88 1018.5
20260502114813 2 174 0.0 3.2 0.00 0.00 0.00 88 1018.5
20260502114558 1 0 0.0 3.2 0.00 0.00 0.00 87 1016.3
20260502114556 1 174 0.0 3.2 0.00 0.00 0.00 88 1018.9
20260502113811 1 174 1.6 3.2 0.00 0.00 0.00 87 1018.4
20260502113322 1 185 1.6 3.2 0.00 0.00 0.00 87 1018.4
20260502113036 1 188 0.0 3.2 0.00 0.00 0.00 87 1016.2
20260502113034 1 188 1.6 3.2 0.00 0.00 0.00 87 1018.8
20260502112833 1 193 1.6 3.2 0.00 0.00 0.00 87 1018.4
20260502112318 1 151 1.6 3.2 0.00 0.00 0.00 87 1018.4
20260502111825 1 150 0.0 0.0 0.00 0.00 0.00 87 1018.4
20260502111534 1 0 0.0 0.0 0.00 0.00 0.00 86 1016.1
20260502111511 1 150 0.0 0.0 0.00 0.00 0.00 87 1018.6
20260502111314 1 150 0.0 0.0 0.00 0.00 0.00 87 1018.2
20260502110824 1 150 0.0 0.0 0.00 0.00 0.00 87 1018.4
20260502110327 1 28 0.0 0.0 0.00 0.00 0.00 87 1018.4
20260502110053 0 28 0.0 0.0 0.00 0.00 0.00 86 1018.7
20260502110037 0 0 0.0 0.0 0.00 0.00 0.00 86 1016.1
20260502105816 1 113 0.0 0.0 0.00 0.00 0.00 86 1018.3
20260502105325 1 62 0.0 0.0 0.00 0.00 0.00 86 1018.1
20260502104835 1 63 0.0 0.0 0.00 0.00 0.00 86 1018.3
20260502104538 0 0 0.0 0.0 0.00 0.00 0.00 86 1016.2
20260502104517 0 222 0.0 0.0 0.00 0.00 0.00 86 1018.7
20260502104343 1 222 0.0 0.0 0.00 0.00 0.00 86 1018.4
20260502103811 1 222 0.0 0.0 0.00 0.00 0.00 86 1018.5
20260502103321 1 252 0.0 0.0 0.00 0.00 0.00 86 1018.6
20260502103038 0 252 0.0 0.0 0.00 0.00 0.00 86 1018.9
20260502102823 1 252 0.0 0.0 0.00 0.00 0.00 86 1018.5
20260502102314 1 252 0.0 0.0 0.00 0.00 0.00 86 1018.6
20260502101823 1 252 0.0 0.0 0.00 0.00 0.00 86 1018.5
20260502101548 1 0 0.0 0.0 0.00 0.00 0.00 86 1016.4
20260502101525 1 252 0.0 0.0 0.00 0.00 0.00 86 1018.9
20260502101330 1 252 0.0 0.0 0.00 0.00 0.00 86 1018.6
20260502100839 1 252 0.0 0.0 0.00 0.00 0.00 86 1018.6
20260502100321 1 252 0.0 0.0 0.00 0.00 0.00 86 1018.5
20260502091531 1 252 0.0 0.0 0.00 0.00 0.00 86 1018.9
20260502091333 1 252 0.0 0.0 0.00 0.00 0.00 86 1018.6
20260502090823 1 252 0.0 0.0 0.00 0.00 0.00 86 1018.6
20260502090333 1 252 0.0 0.0 0.00 0.00 0.00 86 1018.6
20260502071526 2 252 0.0 0.0 0.00 0.00 0.00 85 1018.7
20260502071334 2 252 0.0 0.0 0.00 0.00 0.00 85 1018.3
20260502070841 2 252 0.0 0.0 0.00 0.00 0.00 85 1018.3
20260502070349 2 252 0.0 0.0 0.00 0.00 0.00 84 1018.4
20260502070042 2 252 0.0 0.0 0.00 0.00 0.00 85 1018.6
20260502070035 2 0 0.0 0.0 0.00 0.00 0.00 84 1015.9
20260502065837 2 252 0.0 0.0 0.00 0.00 0.00 85 1018.3
20260502065319 2 252 0.0 0.0 0.00 0.00 0.00 84 1018.3
20260502064827 2 252 0.0 0.0 0.00 0.00 0.00 84 1018.3
20260502064557 2 252 0.0 0.0 0.00 0.00 0.00 84 1018.6
20260502064550 2 0 0.0 0.0 0.00 0.00 0.00 84 1016.0
20260502064315 2 252 0.0 0.0 0.00 0.00 0.00 84 1018.4
20260502063824 2 252 0.0 0.0 0.00 0.00 0.00 84 1018.5
20260502063333 3 252 0.0 0.0 0.00 0.00 0.00 84 1018.7
20260502063034 2 252 0.0 0.0 0.00 0.00 0.00 84 1018.9
20260502063032 2 0 0.0 0.0 0.00 0.00 0.00 84 1016.2
20260502062814 3 252 0.0 0.0 0.00 0.00 0.00 84 1018.6
20260502062323 3 252 0.0 0.0 0.00 0.00 0.00 84 1018.8
20260502061833 3 252 0.0 0.0 0.00 0.00 0.00 84 1018.7
20260502061551 2 252 0.0 0.0 0.00 0.00 0.00 84 1019.0
20260502061536 2 0 0.0 0.0 0.00 0.00 0.00 83 1016.4
20260502061321 3 252 0.0 0.0 0.00 0.00 0.00 84 1018.7
20260502060810 3 252 0.0 0.0 0.00 0.00 0.00 84 1018.8
20260502060340 3 252 0.0 0.0 0.00 0.00 0.00 84 1018.8
20260502060044 3 0 0.0 0.0 0.00 0.00 0.00 83 1016.5
20260502060030 3 252 0.0 0.0 0.00 0.00 0.00 84 1019.2
20260502055829 3 252 0.0 0.0 0.00 0.00 0.00 84 1018.9
20260502055311 3 252 0.0 1.6 0.00 0.00 0.00 84 1018.9
20260502054820 3 252 0.0 1.6 0.00 0.00 0.00 84 1019.0
20260502054538 3 252 0.0 1.6 0.00 0.00 0.00 83 1016.6
20260502054516 3 252 0.0 1.6 0.00 0.00 0.00 83 1019.3
20260502054329 3 252 0.0 0.0 0.00 0.00 0.00 83 1019.0
20260502053835 3 252 0.0 0.0 0.00 0.00 0.00 83 1019.0
20260502053316 3 252 0.0 0.0 0.00 0.00 0.00 83 1019.0
20260502053042 3 252 0.0 0.0 0.00 0.00 0.00 83 1019.3
20260502053036 3 0 0.0 0.0 0.00 0.00 0.00 83 1016.7
20260502052823 3 252 0.0 0.0 0.00 0.00 0.00 83 1018.9
20260502052313 3 252 0.0 0.0 0.00 0.00 0.00 83 1018.9
20260502051820 4 252 0.0 0.0 0.00 0.00 0.00 83 1018.9
20260502051535 3 0 0.0 0.0 0.00 0.00 0.00 82 1016.6
20260502051523 3 252 0.0 0.0 0.00 0.00 0.00 83 1019.2
20260502051327 4 252 0.0 0.0 0.00 0.00 0.00 83 1018.9
20260502050809 4 252 0.0 0.0 0.00 0.00 0.00 82 1018.9
20260502050317 4 252 0.0 0.0 0.00 0.00 0.00 82 1018.9
20260502050059 4 252 0.0 0.0 0.00 0.00 0.00 82 1019.3
20260502050035 4 0 0.0 0.0 0.00 0.00 0.00 82 1016.6
20260502045826 4 252 0.0 0.0 0.00 0.00 0.00 82 1019.0
20260502045316 4 252 0.0 1.6 0.00 0.00 0.00 82 1019.0
20260502044817 4 252 0.0 1.6 0.00 0.00 0.00 82 1019.0
20260502044552 4 252 0.0 1.6 0.00 0.00 0.00 82 1019.5
20260502044538 4 252 0.0 1.6 0.00 0.00 0.00 81 1016.8
20260502044326 5 252 0.0 0.0 0.00 0.00 0.00 82 1019.1
20260502043814 5 252 0.0 0.0 0.00 0.00 0.00 82 1019.2
20260502043323 5 252 0.0 0.0 0.00 0.00 0.00 82 1019.2
20260502043056 5 0 0.0 0.0 0.00 0.00 0.00 81 1016.8
20260502043030 5 252 0.0 0.0 0.00 0.00 0.00 81 1019.5
20260502042831 5 252 0.0 0.0 0.00 0.00 0.00 81 1019.2
20260502042315 5 252 0.0 0.0 0.00 0.00 0.00 81 1019.2
20260502041823 5 252 0.0 0.0 0.00 0.00 0.00 81 1019.3
20260502041541 5 0 0.0 0.0 0.00 0.00 0.00 80 1016.8
20260502041507 5 252 0.0 0.0 0.00 0.00 0.00 81 1019.5
20260502041316 5 252 0.0 0.0 0.00 0.00 0.00 81 1019.1
20260502040839 5 252 0.0 0.0 0.00 0.00 0.00 81 1018.9
20260502040325 5 252 0.0 0.0 0.00 0.00 0.00 80 1018.8
20260502040037 5 0 0.0 0.0 0.00 0.00 0.00 80 1016.6
20260502040030 5 252 0.0 0.0 0.00 0.00 0.00 80 1019.1
20260502035812 6 252 0.0 0.0 0.00 0.00 0.00 80 1018.8
20260502035346 6 252 0.0 0.0 0.00 0.00 0.00 80 1018.7
20260502034813 6 252 0.0 0.0 0.00 0.00 0.00 80 1018.8
20260502034553 6 252 0.0 0.0 0.00 0.00 0.00 80 1019.1
20260502034538 6 0 0.0 0.0 0.00 0.00 0.00 79 1016.6
20260502034339 6 252 0.0 0.0 0.00 0.00 0.00 79 1018.7
20260502033811 6 252 0.0 0.0 0.00 0.00 0.00 79 1018.7
20260502033319 6 252 0.0 0.0 0.00 0.00 0.00 79 1018.7
20260502033037 6 0 0.0 0.0 0.00 0.00 0.00 78 1016.6
20260502033017 6 252 0.0 0.0 0.00 0.00 0.00 79 1019.0
20260502032828 6 252 0.0 0.0 0.00 0.00 0.00 79 1018.9
20260502032311 6 252 0.0 0.0 0.00 0.00 0.00 79 1018.8
20260502031821 7 252 0.0 0.0 0.00 0.00 0.00 78 1018.8
20260502031559 6 252 0.0 0.0 0.00 0.00 0.00 78 1019.0
20260502031538 6 0 0.0 0.0 0.00 0.00 0.00 78 1016.6
20260502031312 7 252 0.0 0.0 0.00 0.00 0.00 78 1018.7
20260502030821 7 252 0.0 0.0 0.00 0.00 0.00 78 1018.8
20260502030331 7 252 0.0 0.0 0.00 0.00 0.00 78 1018.8
20260502030045 7 252 0.0 0.0 0.00 0.00 0.00 78 1019.1
20260502025814 7 252 0.0 0.0 0.00 0.00 0.00 78 1018.8
20260502025325 7 252 0.0 1.6 0.00 0.00 0.00 78 1018.9
20260502024814 7 252 0.0 3.2 0.00 0.00 0.00 78 1018.8
20260502024537 7 0 0.0 3.2 0.00 0.00 0.00 77 1016.6
20260502024525 7 252 0.0 3.2 0.00 0.00 0.00 77 1019.1
20260502024324 7 252 1.6 3.2 0.00 0.00 0.00 77 1018.8
20260502023834 7 252 1.6 3.2 0.00 0.00 0.00 76 1018.7
20260502023316 8 301 1.6 3.2 0.00 0.00 0.00 76 1018.6
20260502023035 8 0 0.0 1.6 0.00 0.00 0.00 75 1016.2
20260502023012 8 301 0.0 0.0 0.00 0.00 0.00 75 1018.7
20260502022845 8 301 0.0 0.0 0.00 0.00 0.00 75 1018.3
20260502022313 8 301 0.0 1.6 0.00 0.00 0.00 74 1018.2
20260502021820 8 301 0.0 1.6 0.00 0.00 0.00 74 1018.1
20260502021540 8 301 0.0 1.6 0.00 0.00 0.00 73 1018.4
20260502021534 8 0 0.0 1.6 0.00 0.00 0.00 73 1016.0
20260502021324 8 301 0.0 0.0 0.00 0.00 0.00 73 1018.1
20260502020815 8 301 0.0 1.6 0.00 0.00 0.00 73 1018.1
20260502020325 9 301 0.0 1.6 0.00 0.00 0.00 73 1018.0
20260502020037 8 0 0.0 3.2 0.00 0.00 0.00 72 1015.8
20260502020016 9 301 0.0 0.0 0.00 0.00 0.00 73 1018.3
20260502015815 9 301 0.0 3.2 0.00 0.00 0.00 73 1017.9
20260502015344 9 301 0.0 3.2 0.00 0.00 0.00 72 1017.9
20260502014833 10 340 0.0 3.2 0.00 0.00 0.00 72 1017.8
20260502014550 9 335 0.0 0.0 0.00 0.00 0.00 72 1018.1
20260502014540 9 0 0.0 0.0 0.00 0.00 0.00 71 1015.6
20260502014315 10 336 0.0 0.0 0.00 0.00 0.00 71 1017.8
20260502013823 10 336 0.0 1.6 0.00 0.00 0.00 71 1017.8
20260502013312 10 336 0.0 1.6 0.00 0.00 0.00 71 1017.7
20260502013037 9 0 0.0 3.2 0.00 0.00 0.00 70 1015.6
20260502013001 9 342 0.0 3.2 0.00 0.00 0.00 70 1017.9
20260502012840 10 342 0.0 3.2 0.00 0.00 0.00 70 1017.5
20260502012327 10 336 0.0 3.2 0.00 0.00 0.00 69 1017.4
20260502011815 10 264 0.0 1.6 0.00 0.00 0.00 69 1017.4
20260502011536 10 0 0.0 1.6 0.00 0.00 0.00 68 1015.1
20260502011518 10 264 0.0 1.6 0.00 0.00 0.00 68 1017.5
20260502011324 10 264 0.0 1.6 0.00 0.00 0.00 68 1017.3
20260502010835 10 264 0.0 3.2 0.00 0.00 0.00 68 1017.1
20260502010317 10 263 1.6 3.2 0.00 0.00 0.00 68 1016.9
20260502010037 10 0 0.0 4.8 0.00 0.00 0.00 68 1014.7
20260502010010 10 270 0.0 3.2 0.00 0.00 0.00 69 1017.0
20260502005826 10 271 1.6 4.8 0.00 0.00 0.00 69 1016.7
20260502005316 10 5 0.0 4.8 0.00 0.00 0.00 69 1016.7
20260502004845 10 256 0.0 6.4 0.00 0.00 0.00 69 1016.7
20260502004543 10 261 0.0 6.4 0.00 0.00 0.00 69 1014.6
20260502004518 10 261 0.0 6.4 0.00 0.00 0.00 69 1016.9
20260502004335 10 242 1.6 6.4 0.00 0.00 0.00 69 1016.5
20260502003825 10 58 1.6 8.0 0.00 0.00 0.00 70 1016.4
20260502003334 10 242 1.6 11.3 0.00 0.00 0.00 71 1016.5
20260502003037 10 52 1.6 11.3 0.00 0.00 0.00 72 1014.5
20260502003010 10 355 1.6 11.3 0.00 0.00 0.00 72 1016.7
20260502002823 10 261 4.8 11.3 0.00 0.00 0.00 74 1016.4
20260502002335 11 50 1.6 6.4 0.00 0.00 0.00 76 1016.4
20260502001819 11 255 0.0 3.2 0.00 0.00 0.00 78 1016.2
20260502001548 11 258 1.6 3.2 0.00 0.00 0.00 78 1016.3
20260502001538 11 0 0.0 4.8 0.00 0.00 0.00 77 1014.0
20260502001326 11 15 0.0 3.2 0.00 0.00 0.00 78 1015.9
20260502000815 11 296 0.0 4.8 0.00 0.00 0.00 77 1015.6
20260502000347 11 217 1.6 3.2 0.00 0.00 0.00 78 1015.6
20260502000037 11 0 0.0 0.0 0.00 0.00 0.00 77 1013.5
20260502000035 11 301 0.0 0.0 0.00 0.00 0.00 78 1015.8
20260501235813 11 301 0.0 0.0 0.00 0.00 0.00 78 1015.4
20260501235343 11 294 0.0 0.0 0.00 0.00 0.00 77 1015.2
20260501234830 11 294 0.0 0.0 0.00 0.00 0.00 77 1015.2
20260501234541 11 294 0.0 0.0 0.00 0.00 0.00 77 1015.3
20260501234539 11 0 0.0 0.0 0.00 0.00 0.00 76 1013.1
20260501234313 11 294 0.0 0.0 0.00 0.00 0.00 77 1015.1
20260501233844 11 294 0.0 0.0 0.00 0.00 0.00 77 1014.9
20260501233312 11 294 0.0 0.0 0.00 0.00 0.00 76 1014.9
20260501233039 11 0 0.0 0.0 0.00 0.00 0.00 76 1012.9
20260501233008 11 294 0.0 0.0 0.00 0.00 0.00 76 1015.1
20260501232820 11 294 0.0 0.0 0.00 0.00 0.00 76 1014.8
20260501232332 11 294 0.0 0.0 0.00 0.00 0.00 76 1014.8
20260501231811 11 294 0.0 1.6 0.00 0.00 0.00 76 1014.8
20260501231550 11 294 0.0 1.6 0.00 0.00 0.00 76 1015.0
20260501231540 11 0 0.0 1.6 0.00 0.00 0.00 76 1012.8
20260501231322 11 294 0.0 1.6 0.00 0.00 0.00 76 1014.9
20260501230811 11 294 0.0 0.0 0.00 0.00 0.00 76 1014.9
20260501230342 11 294 0.0 0.0 0.00 0.00 0.00 76 1014.8
20260501230039 11 0 0.0 0.0 0.00 0.00 0.00 75 1012.9
20260501230004 11 294 0.0 0.0 0.00 0.00 0.00 76 1015.1
20260501225828 11 294 0.0 0.0 0.00 0.00 0.00 75 1014.9
20260501225319 11 294 0.0 0.0 0.00 0.00 0.00 75 1014.9
20260501224820 11 294 0.0 0.0 0.00 0.00 0.00 75 1014.9
20260501224551 11 294 0.0 0.0 0.00 0.00 0.00 75 1015.2
20260501224540 11 0 0.0 0.0 0.00 0.00 0.00 75 1013.0
20260501224356 11 294 0.0 0.0 0.00 0.00 0.00 75 1014.9
20260501223816 11 294 0.0 0.0 0.00 0.00 0.00 74 1014.9
20260501223324 11 294 0.0 3.2 0.00 0.00 0.00 74 1014.9
20260501223034 11 0 0.0 3.2 0.00 0.00 0.00 73 1012.8
20260501223007 11 294 0.0 3.2 0.00 0.00 0.00 74 1015.2
20260501222819 12 294 0.0 3.2 0.00 0.00 0.00 74 1014.9
20260501222329 12 355 0.0 4.8 0.00 0.00 0.00 73 1014.9
20260501221809 12 355 1.6 4.8 0.00 0.00 0.00 73 1014.8
20260501221600 12 57 0.0 4.8 0.00 0.00 0.00 73 1015.1
20260501221537 12 309 0.0 4.8 0.00 0.00 0.00 72 1012.7
20260501221339 12 248 1.6 4.8 0.00 0.00 0.00 72 1014.9
20260501220851 12 28 1.6 3.2 0.00 0.00 0.00 71 1014.9
20260501220316 12 232 0.0 4.8 0.00 0.00 0.00 71 1015.0
20260501220059 12 232 1.6 4.8 0.00 0.00 0.00 71 1015.3
20260501220040 12 223 1.6 4.8 0.00 0.00 0.00 70 1013.1
20260501215826 13 261 1.6 3.2 0.00 0.00 0.00 70 1014.9
20260501215316 13 290 0.0 1.6 0.00 0.00 0.00 69 1014.8
20260501214845 13 290 0.0 1.6 0.00 0.00 0.00 68 1014.9
20260501214539 13 0 0.0 4.8 0.00 0.00 0.00 66 1012.7
20260501214533 13 286 0.0 3.2 0.00 0.00 0.00 66 1015.0
20260501214334 13 286 0.0 4.8 0.00 0.00 0.00 66 1014.7
20260501213814 13 271 1.6 6.4 0.00 0.00 0.00 65 1014.6
20260501213324 13 32 1.6 6.4 0.00 0.00 0.00 64 1014.6
20260501213106 13 134 0.0 6.4 0.00 0.00 0.00 64 1014.9
20260501213037 13 0 0.0 11.3 0.00 0.00 0.00 64 1012.5
20260501212813 13 284 1.6 11.3 0.00 0.00 0.00 63 1014.5
20260501212322 13 13 3.2 11.3 0.00 0.00 0.00 63 1014.5
20260501211832 14 323 1.6 6.4 0.00 0.00 0.00 65 1014.5
20260501211549 13 330 1.6 6.4 0.00 0.00 0.00 64 1014.6
20260501211536 13 22 1.6 6.4 0.00 0.00 0.00 64 1012.4
20260501211313 14 24 1.6 6.4 0.00 0.00 0.00 66 1014.3
20260501210822 14 30 1.6 19.3 0.00 0.00 0.00 64 1014.4
20260501210331 14 175 3.2 19.3 0.00 0.00 0.00 64 1014.4
20260501210038 14 38 0.0 4.8 0.00 0.00 0.00 66 1012.4
20260501210035 14 93 1.6 6.4 0.00 0.00 0.00 66 1014.6
20260501205840 15 121 1.6 4.8 0.00 0.00 0.00 67 1014.3
20260501205349 15 33 1.6 6.4 0.00 0.00 0.00 67 1014.4
20260501204809 15 293 3.2 9.7 0.00 0.00 0.00 66 1014.3
20260501204547 15 15 1.6 9.7 0.00 0.00 0.00 66 1012.1
20260501204542 15 328 1.6 9.7 0.00 0.00 0.00 66 1014.6
20260501204320 15 38 3.2 9.7 0.00 0.00 0.00 66 1014.3
20260501203811 15 38 1.6 6.4 0.00 0.00 0.00 66 1014.2
20260501203322 15 38 1.6 4.8 0.00 0.00 0.00 66 1014.2
20260501203044 15 78 1.6 9.7 0.00 0.00 0.00 66 1014.4
20260501203037 15 19 0.0 9.7 0.00 0.00 0.00 65 1012.0
20260501202824 15 148 1.6 9.7 0.00 0.00 0.00 66 1014.1
20260501202313 15 46 3.2 9.7 0.00 0.00 0.00 67 1014.0
20260501201843 15 28 1.6 8.0 0.00 0.00 0.00 67 1013.9
20260501201612 15 147 1.6 8.0 0.00 0.00 0.00 68 1014.2
20260501201535 15 106 1.6 9.7 0.00 0.00 0.00 66 1011.9
20260501201311 15 11 3.2 8.0 0.00 0.00 0.00 66 1013.9
20260501200821 15 247 0.0 11.3 0.00 0.00 0.00 67 1013.9
20260501200323 15 252 0.0 11.3 0.00 0.00 0.00 66 1013.9
20260501200050 15 252 3.2 11.3 0.00 0.00 0.00 65 1014.2
20260501200036 15 248 1.6 11.3 0.00 0.00 0.00 65 1012.0
20260501195834 15 16 0.0 4.8 0.00 0.00 0.00 66 1013.9
20260501195321 16 20 1.6 6.4 0.00 0.00 0.00 65 1013.8
20260501194809 16 360 1.6 9.7 0.00 0.00 0.00 63 1013.7
20260501194542 16 349 3.2 14.5 0.00 0.00 0.00 61 1011.7
20260501194523 16 348 3.2 14.5 0.00 0.00 0.00 61 1014.0
20260501194318 16 16 3.2 14.5 0.00 0.00 0.00 60 1013.8
20260501193822 16 64 4.8 14.5 0.00 0.00 0.00 55 1013.8
20260501193310 17 254 3.2 14.5 0.00 0.00 0.00 52 1013.6
20260501193037 16 344 3.2 14.5 0.00 0.00 0.00 50 1011.6
20260501193010 17 340 4.8 14.5 0.00 0.00 0.00 50 1013.8
20260501192819 17 319 3.2 8.0 0.00 0.00 0.00 50 1013.5
20260501192330 17 38 1.6 4.8 0.00 0.00 0.00 48 1013.4
20260501191810 17 57 1.6 8.0 0.00 0.00 0.00 46 1013.3
20260501191545 17 78 0.0 8.0 0.00 0.00 0.00 44 1013.6
20260501191542 17 0 1.6 16.1 0.00 0.00 0.00 44 1011.2
20260501191321 18 343 3.2 8.0 0.00 0.00 0.00 44 1013.1
20260501190810 18 213 4.8 16.1 0.00 0.00 0.00 42 1013.3
20260501190321 18 28 1.6 14.5 0.00 0.00 0.00 43 1013.1
20260501190044 18 270 3.2 14.5 0.00 0.00 0.00 44 1011.0
20260501190027 18 270 3.2 14.5 0.00 0.00 0.00 44 1013.3
20260501185832 18 247 4.8 14.5 0.00 0.00 0.00 40 1013.0
20260501185316 18 164 3.2 14.5 0.00 0.00 0.00 43 1013.0
20260501184825 18 269 6.4 14.5 0.00 0.00 0.00 41 1012.9
20260501184545 18 277 1.6 12.9 0.00 0.00 0.00 40 1010.9
20260501184506 18 17 1.6 12.9 0.00 0.00 0.00 40 1013.2
20260501184313 19 213 3.2 12.9 0.00 0.00 0.00 39 1013.0
20260501183824 19 61 4.8 12.9 0.00 0.00 0.00 39 1013.0